Home > Weather > Fort Worth > Past weeks

Flag for USA Past Weather in Fort Worth, Texas, USA — Yesterday and Last 2 Weeks

Now
75 °F

Clear.


Feels Like: 76 °F
Forecast: 71 / 85 °F
Wind: 9 mph from South

Location: Meacham International Airport

Current Time: May 31, 2016 at 5:06:48 AM

Latest Report: May 31, 2016 at 3:53 AM


Visibility: 10 mi

Pressure: 29.83 "Hg

Humidity: 76%

Dew Point: 67 °F

Location of Fort WorthLocation

Past Weather in Fort Worth — Graph

°F

Fort Worth Temperature Yesterday

Maximum temperature yesterday: 84 °F (at 5:53 PM)
Minimum temperature yesterday: 69 °F (at 3:53 AM)
Average temperature yesterday: 76 °F

High & Low Weather Summary for the Past Weeks

 TemperatureHumidityPressure
High91 °F (May 29, 3:53 PM)93% (May 19, 6:53 AM)30.16 "Hg (May 19, 6:53 AM)
Low57 °F (May 18, 6:53 AM)42% (May 29, 2:53 PM)29.64 "Hg (May 27, 2:53 AM)
Average74 °F73%29.92 "Hg
* Reported May 16 2:53 AM — May 31 2:53 AM, Fort Worth, Weather by CustomWeather, © 2016

Note: Actual official high and low records may vary slightly from our data, if they occured in-between our weather recording intervals... More about our weather records

Advertising

Fort Worth Weather History for the Previous 24 Hours

Scroll right to see more
 ConditionsComfort  
Time TempWeatherWind HumidityBarometerVisibility
2:53 AM
Tue, May 31
75 °FClear.6 mph74%29.86 "Hg10 mi
1:53 AM76 °FPassing clouds.9 mph72%29.87 "Hg10 mi
12:53 AM77 °FPassing clouds.6 mph69%29.88 "Hg10 mi
11:53 PM
Mon, May 30
78 °FPassing clouds.7 mph66%29.89 "Hg10 mi
10:53 PM78 °FClear.6 mph64%29.88 "Hg10 mi
9:53 PM78 °FPassing clouds.9 mph66%29.88 "Hg10 mi
8:53 PM78 °FSunny.7 mph64%29.88 "Hg10 mi
7:53 PM81 °FSunny.8 mph58%29.87 "Hg10 mi
6:53 PM83 °FSunny.7 mph55%29.85 "Hg10 mi
5:53 PM84 °FPassing clouds.No wind49%29.87 "Hg10 mi
4:53 PM82 °FPartly sunny.5 mph53%29.89 "Hg10 mi
3:53 PM82 °FPassing clouds.5 mph55%29.92 "Hg10 mi
2:53 PM80 °FScattered clouds.No wind56%29.94 "Hg10 mi
1:53 PM80 °FOvercast.7 mph58%29.96 "Hg10 mi
12:53 PM78 °FPartly sunny.5 mph60%29.97 "Hg10 mi
11:53 AM77 °FPartly sunny.3 mph62%29.98 "Hg10 mi
10:53 AM75 °FSunny.5 mph69%30.00 "Hg10 mi
9:53 AM73 °FSunny.6 mph79%30.00 "Hg10 mi
8:53 AM71 °FSunny.7 mph84%30.01 "Hg10 mi
7:53 AM69 °FSunny.12 mph84%30.00 "Hg10 mi
6:53 AM69 °FClear.9 mph79%29.96 "Hg10 mi
5:53 AM70 °FClear.15 mph71%29.87 "Hg10 mi
Weather by CustomWeather, © 2016

See weather overviewHow to use our weather pages